Location: Campillo
(40.8621°N, 4.2488°W)
Time: 12:18:37
(UTC+00:00)

SJ-6B - Pass Details

Date: 01 October 2021
Orbit: 508 x 581 km, 97.6° (Epoch: 26 October)

Event Time Altitude Azimuth Distance (km) Brightness Sun altitude
Exits shadow 19:13:00 20° 63° (ENE) 1,347 4.3 -14.8°
Drops below altitude 10° 19:15:46 10° 20° (NNE) 1,873 5.4 -15.3°
Sets 19:18:19 0° 4° (N) 2,762 6.5 -15.8°
